Time,TemperatureF,DewpointF,PressureIn,WindDirection,WindDirectionDegrees,WindSpeedMPH,WindSpeedGustMPH,Humidity,HourlyPrecipIn,Conditions,Clouds,dailyrainin,SoftwareType,DateUTC
2013-02-19 00:00:00,42.0,37.0,-100.00,East,92,3.0,-999.0,84,0.00,,,-99.99,,2013-02-19 08:00:00,
2013-02-19 00:22:00,42.0,37.0,-100.00,East,92,3.0,-999.0,84,0.00,,,-99.99,,2013-02-19 08:22:00,
2013-02-19 00:32:00,42.0,37.0,-100.00,East,92,3.0,-999.0,84,0.00,,,-99.99,,2013-02-19 08:32:00,
2013-02-19 00:42:00,42.0,37.0,-100.00,East,92,3.0,-999.0,84,0.00,,,-99.99,,2013-02-19 08:42:00,
2013-02-19 00:52:00,42.0,37.0,-100.00,East,92,3.0,-999.0,84,0.00,,,-99.99,,2013-02-19 08:52:00,
2013-02-19 01:00:00,41.0,37.0,-100.00,SW,218,0.0,-999.0,86,0.00,,,-99.99,,2013-02-19 09:00:00,
2013-02-19 01:22:00,41.0,37.0,-100.00,SW,218,0.0,-999.0,86,0.00,,,-99.99,,2013-02-19 09:22:00,
2013-02-19 01:32:00,41.0,37.0,-100.00,SW,218,0.0,-999.0,86,0.00,,,-99.99,,2013-02-19 09:32:00,
2013-02-19 01:42:00,41.0,37.0,-100.00,SW,218,0.0,-999.0,86,0.00,,,-99.99,,2013-02-19 09:42:00,
2013-02-19 01:53:00,41.0,37.0,-100.00,SW,218,0.0,-999.0,86,0.00,,,-99.99,,2013-02-19 09:53:00,
2013-02-19 02:00:00,44.0,39.0,-100.00,NNE,29,2.0,-999.0,82,0.00,,,-99.99,,2013-02-19 10:00:00,
2013-02-19 02:22:00,44.0,39.0,-100.00,NNE,29,2.0,-999.0,82,0.00,,,-99.99,,2013-02-19 10:22:00,
2013-02-19 02:32:00,44.0,39.0,-100.00,NNE,29,2.0,-999.0,82,0.00,,,-99.99,,2013-02-19 10:32:00,
2013-02-19 02:42:00,44.0,39.0,-100.00,NNE,29,2.0,-999.0,82,0.00,,,-99.99,,2013-02-19 10:42:00,
2013-02-19 02:52:00,44.0,39.0,-100.00,NNE,29,2.0,-999.0,82,0.00,,,-99.99,,2013-02-19 10:52:00,
2013-02-19 03:00:00,44.0,39.0,-100.00,SW,218,2.0,-999.0,82,0.00,,,-99.99,,2013-02-19 11:00:00,
2013-02-19 03:22:00,44.0,39.0,-100.00,SW,218,2.0,-999.0,82,0.00,,,-99.99,,2013-02-19 11:22:00,
2013-02-19 03:32:00,44.0,39.0,-100.00,SW,218,2.0,-999.0,82,0.00,,,-99.99,,2013-02-19 11:32:00,
2013-02-19 03:42:00,44.0,39.0,-100.00,SW,218,2.0,-999.0,82,0.00,,,-99.99,,2013-02-19 11:42:00,
2013-02-19 03:52:00,44.0,39.0,-100.00,SW,218,2.0,-999.0,82,0.00,,,-99.99,,2013-02-19 11:52:00,
2013-02-19 04:00:00,45.0,39.0,-100.00,NW,316,4.0,-999.0,80,0.00,,,-99.99,,2013-02-19 12:00:00,
2013-02-19 04:22:00,45.0,39.0,-100.00,NW,316,4.0,-999.0,80,0.00,,,-99.99,,2013-02-19 12:22:00,
2013-02-19 04:32:00,45.0,39.0,-100.00,NW,316,4.0,-999.0,80,0.00,,,-99.99,,2013-02-19 12:32:00,
2013-02-19 04:42:00,45.0,39.0,-100.00,NW,316,4.0,-999.0,80,0.00,,,-99.99,,2013-02-19 12:42:00,
2013-02-19 04:52:00,45.0,39.0,-100.00,NW,316,4.0,-999.0,80,0.00,,,-99.99,,2013-02-19 12:52:00,
2013-02-19 05:00:00,45.0,39.0,-100.00,WNW,294,3.0,-999.0,78,0.00,,,-99.99,,2013-02-19 13:00:00,
2013-02-19 05:22:00,45.0,39.0,-100.00,WNW,294,3.0,-999.0,78,0.00,,,-99.99,,2013-02-19 13:22:00,
2013-02-19 05:32:00,45.0,39.0,-100.00,WNW,294,3.0,-999.0,78,0.00,,,-99.99,,2013-02-19 13:32:00,
2013-02-19 05:42:00,45.0,39.0,-100.00,WNW,294,3.0,-999.0,78,0.00,,,-99.99,,2013-02-19 13:42:00,
2013-02-19 05:52:00,45.0,39.0,-100.00,WNW,294,3.0,-999.0,78,0.00,,,-99.99,,2013-02-19 13:52:00,
2013-02-19 06:00:00,45.0,39.0,-100.00,SSE,168,3.0,-999.0,80,0.00,,,-99.99,,2013-02-19 14:00:00,
2013-02-19 06:22:00,45.0,39.0,-100.00,SSE,168,3.0,-999.0,80,0.00,,,-99.99,,2013-02-19 14:22:00,
2013-02-19 06:33:00,45.0,39.0,-100.00,SSE,168,3.0,-999.0,80,0.00,,,-99.99,,2013-02-19 14:33:00,
2013-02-19 06:42:00,45.0,39.0,-100.00,SSE,168,3.0,-999.0,80,0.00,,,-99.99,,2013-02-19 14:42:00,
2013-02-19 06:52:00,45.0,39.0,-100.00,SSE,168,3.0,-999.0,80,0.00,,,-99.99,,2013-02-19 14:52:00,
2013-02-19 07:00:00,45.0,39.0,-100.00,South,188,4.0,-999.0,82,0.00,,,-99.99,,2013-02-19 15:00:00,
2013-02-19 07:22:00,45.0,39.0,-100.00,South,188,4.0,-999.0,82,0.00,,,-99.99,,2013-02-19 15:22:00,
2013-02-19 07:32:00,45.0,39.0,-100.00,South,188,4.0,-999.0,82,0.00,,,-99.99,,2013-02-19 15:32:00,
2013-02-19 07:42:00,45.0,39.0,-100.00,South,188,4.0,-999.0,82,0.00,,,-99.99,,2013-02-19 15:42:00,
2013-02-19 07:52:00,45.0,39.0,-100.00,South,188,4.0,-999.0,82,0.00,,,-99.99,,2013-02-19 15:52:00,
2013-02-19 08:00:00,45.0,40.0,-100.00,West,259,1.0,-999.0,81,0.00,,,-99.99,,2013-02-19 16:00:00,
2013-02-19 08:22:00,45.0,40.0,-100.00,West,259,1.0,-999.0,81,0.00,,,-99.99,,2013-02-19 16:22:00,
2013-02-19 08:32:00,45.0,40.0,-100.00,West,259,1.0,-999.0,81,0.00,,,-99.99,,2013-02-19 16:32:00,
2013-02-19 08:42:00,45.0,40.0,-100.00,West,259,1.0,-999.0,81,0.00,,,-99.99,,2013-02-19 16:42:00,
2013-02-19 08:52:00,45.0,40.0,-100.00,West,259,1.0,-999.0,81,0.00,,,-99.99,,2013-02-19 16:52:00,
2013-02-19 09:00:00,46.0,39.0,-100.00,SSW,192,3.0,-999.0,76,0.00,,,-99.99,,2013-02-19 17:00:00,
2013-02-19 09:21:00,46.0,39.0,-100.00,SSW,192,3.0,-999.0,76,0.00,,,-99.99,,2013-02-19 17:21:00,
2013-02-19 09:32:00,46.0,39.0,-100.00,SSW,192,3.0,-999.0,76,0.00,,,-99.99,,2013-02-19 17:32:00,
2013-02-19 09:42:00,46.0,39.0,-100.00,SSW,192,3.0,-999.0,76,0.00,,,-99.99,,2013-02-19 17:42:00,
2013-02-19 09:52:00,46.0,39.0,-100.00,SSW,192,3.0,-999.0,76,0.00,,,-99.99,,2013-02-19 17:52:00,
2013-02-19 10:00:00,50.0,38.0,-100.00,SW,220,1.0,-999.0,64,0.00,,,-99.99,,2013-02-19 18:00:00,
2013-02-19 10:21:00,50.0,38.0,-100.00,SW,220,1.0,-999.0,64,0.00,,,-99.99,,2013-02-19 18:21:00,
2013-02-19 10:32:00,50.0,38.0,-100.00,SW,220,1.0,-999.0,64,0.00,,,-99.99,,2013-02-19 18:32:00,
2013-02-19 10:42:00,50.0,38.0,-100.00,SW,220,1.0,-999.0,64,0.00,,,-99.99,,2013-02-19 18:42:00,
2013-02-19 10:52:00,50.0,38.0,-100.00,SW,220,1.0,-999.0,64,0.00,,,-99.99,,2013-02-19 18:52:00,
2013-02-19 11:00:00,51.0,37.0,-100.00,SSW,212,0.0,-999.0,60,0.00,,,-99.99,,2013-02-19 19:00:00,
2013-02-19 11:22:00,51.0,37.0,-100.00,SSW,212,0.0,-999.0,60,0.00,,,-99.99,,2013-02-19 19:22:00,
2013-02-19 11:32:00,51.0,37.0,-100.00,SSW,212,0.0,-999.0,60,0.00,,,-99.99,,2013-02-19 19:32:00,
2013-02-19 11:42:00,51.0,37.0,-100.00,SSW,212,0.0,-999.0,60,0.00,,,-99.99,,2013-02-19 19:42:00,
2013-02-19 11:52:00,51.0,37.0,-100.00,SSW,212,0.0,-999.0,60,0.00,,,-99.99,,2013-02-19 19:52:00,
2013-02-19 12:00:00,51.0,37.0,-100.00,WNW,288,3.0,-999.0,59,0.00,,,-99.99,,2013-02-19 20:00:00,
2013-02-19 12:22:00,51.0,37.0,-100.00,WNW,288,3.0,-999.0,59,0.00,,,-99.99,,2013-02-19 20:22:00,
2013-02-19 12:32:00,51.0,37.0,-100.00,WNW,288,3.0,-999.0,59,0.00,,,-99.99,,2013-02-19 20:32:00,
2013-02-19 12:42:00,51.0,37.0,-100.00,WNW,288,3.0,-999.0,59,0.00,,,-99.99,,2013-02-19 20:42:00,
2013-02-19 12:52:00,51.0,37.0,-100.00,WNW,288,3.0,-999.0,59,0.00,,,-99.99,,2013-02-19 20:52:00,
2013-02-19 13:00:00,52.0,37.0,-100.00,WNW,303,4.0,-999.0,55,0.00,,,-99.99,,2013-02-19 21:00:00,
2013-02-19 13:21:00,52.0,37.0,-100.00,WNW,303,4.0,-999.0,55,0.00,,,-99.99,,2013-02-19 21:21:00,
2013-02-19 13:32:00,52.0,37.0,-100.00,WNW,303,4.0,-999.0,55,0.00,,,-99.99,,2013-02-19 21:32:00,
2013-02-19 13:42:00,52.0,37.0,-100.00,WNW,303,4.0,-999.0,55,0.00,,,-99.99,,2013-02-19 21:42:00,
2013-02-19 13:52:00,52.0,37.0,-100.00,WNW,303,4.0,-999.0,55,0.00,,,-99.99,,2013-02-19 21:52:00,
2013-02-19 14:00:00,52.0,36.0,-100.00,NNW,347,2.0,-999.0,52,0.00,,,-99.99,,2013-02-19 22:00:00,
2013-02-19 14:22:00,52.0,36.0,-100.00,NNW,347,2.0,-999.0,52,0.00,,,-99.99,,2013-02-19 22:22:00,
2013-02-19 14:32:00,52.0,36.0,-100.00,NNW,347,2.0,-999.0,52,0.00,,,-99.99,,2013-02-19 22:32:00,
2013-02-19 14:42:00,52.0,36.0,-100.00,NNW,347,2.0,-999.0,52,0.00,,,-99.99,,2013-02-19 22:42:00,
2013-02-19 14:52:00,52.0,36.0,-100.00,NNW,347,2.0,-999.0,52,0.00,,,-99.99,,2013-02-19 22:52:00,
2013-02-19 15:00:00,53.0,33.0,-100.00,East,89,6.0,-999.0,47,0.00,,,-99.99,,2013-02-19 23:00:00,
2013-02-19 15:21:00,53.0,33.0,-100.00,East,89,6.0,-999.0,47,0.00,,,-99.99,,2013-02-19 23:21:00,
2013-02-19 15:32:00,53.0,33.0,-100.00,East,89,6.0,-999.0,47,0.00,,,-99.99,,2013-02-19 23:32:00,
2013-02-19 15:42:00,53.0,33.0,-100.00,East,89,6.0,-999.0,47,0.00,,,-99.99,,2013-02-19 23:42:00,
2013-02-19 15:52:00,53.0,33.0,-100.00,East,89,6.0,-999.0,47,0.00,,,-99.99,,2013-02-19 23:52:00,
2013-02-19 16:00:00,53.0,31.0,-100.00,ENE,69,6.0,-999.0,43,0.00,,,-99.99,,2013-02-20 00:00:00,
2013-02-19 16:22:00,53.0,31.0,-100.00,ENE,69,6.0,-999.0,43,0.00,,,-99.99,,2013-02-20 00:22:00,
2013-02-19 16:32:00,53.0,31.0,-100.00,ENE,69,6.0,-999.0,43,0.00,,,-99.99,,2013-02-20 00:32:00,
2013-02-19 16:42:00,53.0,31.0,-100.00,ENE,69,6.0,-999.0,43,0.00,,,-99.99,,2013-02-20 00:42:00,
2013-02-19 16:52:00,53.0,31.0,-100.00,ENE,69,6.0,-999.0,43,0.00,,,-99.99,,2013-02-20 00:52:00,
2013-02-19 17:00:00,53.0,32.0,-100.00,SSE,158,5.0,-999.0,44,0.00,,,-99.99,,2013-02-20 01:00:00,
2013-02-19 17:22:00,53.0,32.0,-100.00,SSE,158,5.0,-999.0,44,0.00,,,-99.99,,2013-02-20 01:22:00,
2013-02-19 17:32:00,53.0,32.0,-100.00,SSE,158,5.0,-999.0,44,0.00,,,-99.99,,2013-02-20 01:32:00,
2013-02-19 17:42:00,53.0,32.0,-100.00,SSE,158,5.0,-999.0,44,0.00,,,-99.99,,2013-02-20 01:42:00,
2013-02-19 17:52:00,53.0,32.0,-100.00,SSE,158,5.0,-999.0,44,0.00,,,-99.99,,2013-02-20 01:52:00,
2013-02-19 18:00:00,48.0,40.0,-100.00,WSW,240,8.0,-999.0,73,0.00,,,-99.99,,2013-02-20 02:00:00,
2013-02-19 18:22:00,48.0,40.0,-100.00,WSW,240,8.0,-999.0,73,0.00,,,-99.99,,2013-02-20 02:22:00,
2013-02-19 18:32:00,48.0,40.0,-100.00,WSW,240,8.0,-999.0,73,0.00,,,-99.99,,2013-02-20 02:32:00,
2013-02-19 18:42:00,48.0,40.0,-100.00,WSW,240,8.0,-999.0,73,0.00,,,-99.99,,2013-02-20 02:42:00,
2013-02-19 18:52:00,48.0,40.0,-100.00,WSW,240,8.0,-999.0,73,0.00,,,-99.99,,2013-02-20 02:52:00,
2013-02-19 19:00:00,44.0,41.0,-100.00,WNW,296,4.0,-999.0,86,0.00,,,-99.99,,2013-02-20 03:00:00,
2013-02-19 19:22:00,44.0,41.0,-100.00,WNW,296,4.0,-999.0,86,0.00,,,-99.99,,2013-02-20 03:22:00,
2013-02-19 19:32:00,44.0,41.0,-100.00,WNW,296,4.0,-999.0,86,0.00,,,-99.99,,2013-02-20 03:32:00,
2013-02-19 19:42:00,44.0,41.0,-100.00,WNW,296,4.0,-999.0,86,0.00,,,-99.99,,2013-02-20 03:42:00,
2013-02-19 19:52:00,44.0,41.0,-100.00,WNW,296,4.0,-999.0,86,0.00,,,-99.99,,2013-02-20 03:52:00,
2013-02-19 20:00:00,40.0,37.0,-100.00,NW,306,6.0,-999.0,89,0.00,,,-99.99,,2013-02-20 04:00:00,
2013-02-19 20:22:00,40.0,37.0,-100.00,NW,306,6.0,-999.0,89,0.00,,,-99.99,,2013-02-20 04:22:00,
2013-02-19 20:32:00,40.0,37.0,-100.00,NW,306,6.0,-999.0,89,0.00,,,-99.99,,2013-02-20 04:32:00,
2013-02-19 20:42:00,40.0,37.0,-100.00,NW,306,6.0,-999.0,89,0.00,,,-99.99,,2013-02-20 04:42:00,
2013-02-19 20:52:00,40.0,37.0,-100.00,NW,306,6.0,-999.0,89,0.00,,,-99.99,,2013-02-20 04:52:00,
2013-02-19 21:00:00,40.0,36.0,-100.00,NW,320,6.0,-999.0,86,0.00,,,-99.99,,2013-02-20 05:00:00,
2013-02-19 21:22:00,40.0,36.0,-100.00,NW,320,6.0,-999.0,86,0.00,,,-99.99,,2013-02-20 05:22:00,
2013-02-19 21:32:00,40.0,36.0,-100.00,NW,320,6.0,-999.0,86,0.00,,,-99.99,,2013-02-20 05:32:00,
2013-02-19 21:43:00,40.0,36.0,-100.00,NW,320,6.0,-999.0,86,0.00,,,-99.99,,2013-02-20 05:43:00,
2013-02-19 21:52:00,40.0,36.0,-100.00,NW,320,6.0,-999.0,86,0.00,,,-99.99,,2013-02-20 05:52:00,
2013-02-19 23:00:00,37.0,34.0,-100.00,ESE,119,4.0,-999.0,88,0.00,,,-99.99,,2013-02-20 07:00:00,
2013-02-19 23:32:00,37.0,34.0,-100.00,ESE,119,4.0,-999.0,88,0.00,,,-99.99,,2013-02-20 07:32:00,
2013-02-19 23:42:00,37.0,34.0,-100.00,ESE,119,4.0,-999.0,88,0.00,,,-99.99,,2013-02-20 07:42:00,
2013-02-19 23:52:00,37.0,34.0,-100.00,ESE,119,4.0,-999.0,88,0.00,,,-99.99,,2013-02-20 07:52:00,